Regional Weather Roundup
Issued by NWS

Home | Current Version | Previous Version | Text Only | Print | Product List | Glossary On
Versions: 1 2 3 4 5 6 7 8 9 10 11 12 13 14 15 16 17 18 19 20 21 22 23 24 25 26 27 28 29 30 31 32 33 34 35 36 37 38 39 40 41 42 43 44 45 46 47 48 49 50
000
ASUS44 KLUB 291101
RWRTX
WEST TEXAS WEATHER ROUNDUP
NATIONAL WEATHER SERVICE LUBBOCK TX
600 AM CDT WED JUL 29 2015

NOTE: "FAIR" INDICATES FEW OR NO CLOUDS BELOW 12,000 FEET WITH NO
SIGNIFICANT WEATHER AND/OR OBSTRUCTIONS TO VISIBILITY.

TXZ004-006>008-010-012-014-016-OKZ002-291200-
TEXAS PANHANDLE/OKLAHOMA PANHANDLE

CITY           SKY/WX    TMP DP  RH WIND       PRES   REMARKS
AMARILLO       PTCLDY    66  64  93 N7        30.15R
BORGER         MOCLDY    69  66  90 E3        30.13R
CANADIAN       MOCLDY    74  64  73 NE8       30.08R
DALHART        CLOUDY    67  64  90 E8        30.19R
DUMAS          MOCLDY    64  62  92 CALM      30.17R
GUYMON         CLOUDY    67  62  84 NE7       30.14R
PAMPA          PTCLDY    69  65  89 NE10      30.14R
$$

TXZ026-029-035-045-048-291200-
SOUTHERN PANHANDLE/SOUTH PLAINS/ROLLING PLAINS

CITY           SKY/WX    TMP DP  RH WIND       PRES   REMARKS
CHILDRESS      CLEAR     73  65  75 N9        30.03R
SEMINOLE       CLEAR     71  61  71 N3        30.11F
LUBBOCK        CLEAR     68  62  81 NE3       30.10R
$$

TXZ052-054-060>062-072-078-127-140-154-169-291200-
PERMIAN BASIN/CONCHO VALLEY/BIG COUNTRY/EDWARDS PLATEAU

CITY           SKY/WX    TMP DP  RH WIND       PRES   REMARKS
ABILENE        CLEAR     78  67  68 S8        30.02R
BIG SPRING     CLEAR     75  58  54 CALM      30.09S
JUNCTION       CLEAR     74  69  85 SE3       30.04R
MIDLAND        CLEAR     80  61  52 S8        30.07R
ODESSA         CLEAR     80  59  48 S3        30.09R
SAN ANGELO     CLEAR     76  68  76 S5        30.02R
WINK           CLEAR     76  62  62 NE10      30.05R
$$

TXZ055-058-074-075-080-082-291200-
FAR WEST/SOUTHWEST MOUNTAINS/TRANS PECOS

CITY           SKY/WX    TMP DP  RH WIND       PRES   REMARKS
ALPINE         CLOUDY    69  62  76 N7        30.21R
DRYDEN           N/A     79  64  60 VRB3      29.99R
EL PASO        CLOUDY    73  65  75 SE3       30.16R
FORT STOCKTON  CLEAR     76  61  59 S6        30.06R
GUADALUPE PASS PTCLDY    66  59  78 NE25      30.24R
MARFA          MOCLDY    68  63  83 N7        30.18S
$$

TXZ014-016-019-021>030-083-291200
TEXAS TECH WEST TEXAS MESONET/TEXAS PANHANDLE/NORTHERN SOUTH PLAINS

CITY           SKY/WX    TMP DP  RH WIND       PRES   REMARKS
ABERNATHY 5ENE   N/A     65  61  86 N5        30.11S
AMARILLO 9NNE    N/A     64  64  99 CALM      30.14R
AMARILLO 7SSE    N/A     66  64  94 N5        30.16R
AMHERST 1NE      N/A     65  62  89 NW9       30.15R
BOOTLEG 11WNW    N/A     64  62  96 NW5       30.22R
CANADIAN 6E      N/A     73  62  68 N18       30.05R
CAPROCK CYN SP   N/A     72  64  76 N7        30.08S
CHILDRESS 2NNE   N/A     72  64  76 N8        30.02R
CLARENDON 2WSW   N/A     68  64  86 N5        30.09R
CLAUDE 12SW      N/A     65  64  96 N10       30.13R
DIMMITT 2NE      N/A     63  61  93 NW7       30.16R
FLOYDADA 2NNE    N/A     66  62  86 NE3       30.10R
FRIONA 2NE       N/A     64  62  93 W5        30.18S
GOODLETT 3W      N/A     74  64  69 N9        29.99S
HART 3N          N/A     65  61  87 N7        30.14S
HEREFORD 2NW     N/A     64  60  88 CALM      30.16S
MCLEAN 1E        N/A     69  65  85 N8        30.08R
MEMPHIS 1NE      N/A     73  65  77 N6        30.03S
MULESHOE 2SSW    N/A     64  63  94 W3        30.17R
OLTON 6S         N/A     65  61  87 NE5       30.12R
PALO DURO SP     N/A     67  64  88 N6        30.15R
PAMPA 2E         N/A     65  63  93 N7        30.12R
PLAINVIEW 1S     N/A     67  62  84 NE2       30.10S
SILVERTON 7ESE   N/A     68  62  81 N9        30.10S
TULIA 2ENE       N/A     63  61  94 NW6       30.13R
TURKEY 2WSW      N/A     71  64  79 NW10      30.05S
UMBARGER 3NNE    N/A     64  63  95 N5        30.17R
$$

TXZ033>036-039>041-045>048-291200
TEXAS TECH WEST TEXAS MESONET/SOUTH PLAINS

CITY           SKY/WX    TMP DP  RH WIND       PRES   REMARKS
AIKEN 3WSW       N/A     65  63  92 NE2       30.11S
ANDREWS 2NE      N/A     72  60  66 N5        30.10R
ANTON 6SSW       N/A     65  61  85 CALM      30.11S
BROWNFIELD 2S    N/A     69  60  74 NE5       30.10S
DENVR CTY 7WNW   N/A     66  60  81 W9        30.13R
GAIL 2ESE        N/A     70  63  76 E3        30.05S
LAMESA 2SE       N/A     71  62  71 E2        30.08S
LEVELLAND 4S     N/A     64  59  86 NW5       30.13R
MORTON 1ENE      N/A     63  60  91 N2        30.15R
ODONNELL 1N      N/A     69  60  70 NE5       30.09R
PLAINS 3N        N/A     63  60  88 W8        30.14R
RALLS 1SE        N/A     68  61  78 NE3       30.10S
REESE CENTER     N/A     67  61  80 NE3       30.11R
SEMINOLE 2NNE    N/A     69  61  73 NW5       30.10S
SLATON 2NE       N/A     71  61  70 NE3       30.10R
SNYDER 3E        N/A     76  62  61 S6        30.05S
SUNDOWN 8SW      N/A     62  59  90 NW5       30.13R
TAHOKA 3NNE      N/A     68  61  78 NE3       30.08S
WOLFFORTH 6SSW   N/A     67  60  79 NE3       30.11R
$$

TXZ031-032-036>038-042>044-291200-
TEXAS TECH WEST TEXAS MESONET/ROLLING PLAINS

CITY           SKY/WX    TMP DP  RH WIND       PRES   REMARKS
ASPERMONT 3NE    N/A     73  63  71 SE6       30.01S
FLUVANNA 3WNW    N/A     71  62  73 NE3       30.06S
GRAHAM 5SSW      N/A     72  61  67 NE3       30.07S
GUTHRIE 10WSW    N/A     74  64  71 N6        30.02S
HASKELL 1NW      N/A     77  61  56 S6        30.00S
JAYTON 1SSE      N/A     75  64  68 NE7       30.03R
KNOX CITY 3NW    N/A     76  62  62 S8        30.00R
LK A HENRY 1NW   N/A     72  63  73 E5        30.04S
NORTHFIELD 1S    N/A     71  65  83 NW3       30.04R
ODELL 4ENE       N/A     75  66  73 E6        29.99S
PADUCAH 10SW     N/A     73  65  76 NW7       30.02S
POST 1NE         N/A     70  61  73 NW3       30.06S
RRING SPRGS 3N   N/A     71  64  78 N9        30.06S
SEYMOUR 3NW      N/A     75  65  70 S2        29.98S
SPUR 1W          N/A     70  63  77 CALM      30.03S
WEINERT 2NNE     N/A     76  63  65 S6        30.00S
WHITE RVR 6NE    N/A     71  62  73 N7        30.06S
$$

TXZ052-054-060>062-072-078-127-140-154-169-291200-
TEXAS TECH WEST TEXAS MESONET/PERMIAN BASIN/
CONCHO VALLEY/BIG COUNTRY/EDWARDS PLATEAU

CITY           SKY/WX    TMP DP  RH WIND       PRES   REMARKS
COYANOSA 2N      N/A     78  62  57 E6        30.03S
JUNCTION 1SSW    N/A     70  67  89 CALM      30.04S
MERTZON 3NNE     N/A     75  68  77 S7        30.04S
SAN ANGELO 7NW   N/A     75  63  67 S1        30.03R
STRLNG CT 4WSW   N/A     77  66  68 SE7       30.05R
ST LAWRNCE 5SW   N/A     75  62  64 SE8       30.05S
SWEETWATR 11SW   N/A     76  66  71 S8        30.06S
WALL 1E          N/A     78  67  67 S3        30.03R
$$

TXZ055-058-074-075-080-082-291200-
TEXAS TECH WEST TEXAS MESONET/FAR WEST/SOUTHWEST MOUNTAINS/TRANS PECOS

CITY           SKY/WX    TMP DP  RH WIND       PRES   REMARKS
PRSMN GAP BBNP   N/A     81  61  51 NE12      30.02R
$$



USA.gov is the U.S. government's official web portal to all federal, state and local government web resources and services.